Location: Church Tower
(37.7144°N, 119.6316°W)
Time: 20:37:50
(UTC+00:00)

Cosmos 2221 Rocket - Pass Details

Date: 15 November 2025
Orbit: 615 x 642 km, 82.5° (Epoch: 08 December)

Event Time Altitude Azimuth Distance (km) Brightness Sun altitude
Rises 13:57:01 0° 194° (SSW) 2,930 7.1 -8.6°
Reaches altitude 10° 13:59:16 10° 198° (SSW) 2,027 6.2 -8.2°
Maximum altitude 14:03:43 61° 278° (W) 729 3.7 -7.4°
Drops below altitude 10° 14:08:13 10° 360° (N) 2,044 6.0 -6.5°
Sets 14:10:30 0° 4° (N) 2,956 6.9 -6.1°
